| time (UTC) | temp C | wind direction | speed KPH | gust KPH | rain 1hr cm | rain 24hr cm | rain mn cm | humidity % | barometer mb |
| 20260831073504 | 19 | 200 | 14.5 | 27.4 | 0.00 | 0.00 | 0.00 | 61 | 1022.0 |
| 20260831073004 | 19 | 200 | 14.5 | 27.4 | 0.00 | 0.00 | 0.00 | 61 | 1022.3 |
| 20260831071004 | 22 | 330 | 0.0 | 4.8 | 0.00 | 0.00 | 0.00 | 67 | 1022.2 |
| 20260831070504 | 22 | 330 | 0.0 | 4.8 | 0.00 | 0.00 | 0.00 | 67 | 1022.3 |
| 20260831070004 | 22 | 330 | 0.0 | 4.8 | 0.00 | 0.00 | 0.00 | 67 | 1022.3 |
| 20260831065503 | 22 | 330 | 0.0 | 4.8 | 0.00 | 0.00 | 0.00 | 67 | 1022.1 |
| 20260831065004 | 22 | 330 | 0.0 | 4.8 | 0.00 | 0.00 | 0.00 | 67 | 1022.1 |
| 20260831064504 | 22 | 330 | 0.0 | 4.8 | 0.00 | 0.00 | 0.00 | 67 | 1022.2 |
| 20260831064003 | 22 | 330 | 0.0 | 4.8 | 0.00 | 0.00 | 0.00 | 67 | 1021.9 |
| 20260831063503 | 22 | 330 | 0.0 | 4.8 | 0.00 | 0.00 | 0.00 | 67 | 1022.1 |
| 20260831063004 | 22 | 330 | 0.0 | 4.8 | 0.00 | 0.00 | 0.00 | 67 | 1021.6 |
| 20260831062503 | 22 | 330 | 0.0 | 4.8 | 0.00 | 0.00 | 0.00 | 67 | 1021.3 |
| 20260831062003 | 22 | 111 | 4.8 | 6.4 | 0.00 | 0.00 | 0.00 | 66 | 1021.1 |
| 20260831061504 | 22 | 130 | 3.2 | 4.8 | 0.00 | 0.00 | 0.00 | 64 | 1021.1 |
| 20260831061003 | 22 | 142 | 3.2 | 3.2 | 0.00 | 0.00 | 0.00 | 64 | 1021.1 |
| 20260831060504 | 22 | 182 | 4.8 | 6.4 | 0.00 | 0.00 | 0.00 | 64 | 1021.1 |
| 20260831060004 | 22 | 182 | 4.8 | 6.4 | 0.00 | 0.00 | 0.00 | 64 | 1021.3 |
| 20260831055503 | 22 | 215 | 4.8 | 6.4 | 0.00 | 0.00 | 0.00 | 67 | 1021.1 |
| 20260831055003 | 22 | 215 | 4.8 | 6.4 | 0.00 | 0.00 | 0.00 | 67 | 1021.1 |
| 20260831054504 | 22 | 215 | 4.8 | 6.4 | 0.00 | 0.00 | 0.00 | 67 | 1021.5 |
| 20260831054004 | 22 | 215 | 4.8 | 6.4 | 0.00 | 0.00 | 0.00 | 67 | 1021.4 |
| 20260831053504 | 22 | 215 | 4.8 | 6.4 | 0.00 | 0.00 | 0.00 | 67 | 1021.4 |
| 20260831053004 | 22 | 215 | 4.8 | 6.4 | 0.00 | 0.00 | 0.00 | 67 | 1021.6 |
| 20260831052503 | 22 | 215 | 4.8 | 6.4 | 0.00 | 0.00 | 0.00 | 67 | 1021.7 |
| 20260831052004 | 22 | 215 | 4.8 | 6.4 | 0.00 | 0.00 | 0.00 | 67 | 1021.5 |
| 20260831051503 | 22 | 215 | 4.8 | 6.4 | 0.00 | 0.00 | 0.00 | 67 | 1021.6 |
| 20260831051003 | 22 | 215 | 4.8 | 6.4 | 0.00 | 0.00 | 0.00 | 67 | 1021.6 |
| 20260831050504 | 22 | 215 | 4.8 | 6.4 | 0.00 | 0.00 | 0.00 | 67 | 1021.3 |
| 20260831050004 | 22 | 215 | 4.8 | 6.4 | 0.00 | 0.00 | 0.00 | 67 | 1021.1 |
| 20260831045504 | 22 | 232 | 4.8 | 9.7 | 0.00 | 0.00 | 0.00 | 67 | 1021.3 |
| 20260831045004 | 22 | 180 | 4.8 | 6.4 | 0.00 | 0.00 | 0.00 | 67 | 1021.4 |
| 20260831044504 | 22 | 139 | 3.2 | 8.0 | 0.00 | 0.00 | 0.00 | 67 | 1021.1 |
| 20260831042503 | 21 | 165 | 0.0 | 4.8 | 0.00 | 0.00 | 0.00 | 69 | 1021.5 |
| 20260831042003 | 21 | 158 | 3.2 | 6.4 | 0.00 | 0.00 | 0.00 | 69 | 1021.4 |
| 20260831041503 | 21 | 212 | 3.2 | 4.8 | 0.00 | 0.00 | 0.00 | 70 | 1021.3 |
| 20260831041003 | 21 | 212 | 3.2 | 4.8 | 0.00 | 0.00 | 0.00 | 70 | 1021.4 |
| 20260831040503 | 21 | 190 | 4.8 | 4.8 | 0.00 | 0.00 | 0.00 | 69 | 1021.5 |
| 20260831040004 | 21 | 137 | 4.8 | 4.8 | 0.00 | 0.00 | 0.00 | 70 | 1021.4 |
| 20260831035504 | 21 | 202 | 3.2 | 4.8 | 0.00 | 0.00 | 0.00 | 70 | 1021.4 |
| 20260831035004 | 21 | 112 | 0.0 | 3.2 | 0.00 | 0.00 | 0.00 | 70 | 1021.5 |
| 20260831034504 | 21 | 186 | 0.0 | 3.2 | 0.00 | 0.00 | 0.00 | 70 | 1021.4 |
| 20260831034003 | 21 | 271 | 4.8 | 4.8 | 0.00 | 0.00 | 0.00 | 69 | 1021.5 |
| 20260831033504 | 21 | 271 | 4.8 | 4.8 | 0.00 | 0.00 | 0.00 | 69 | 1021.4 |
| 20260831031504 | 22 | 226 | 8.0 | 8.0 | 0.00 | 0.00 | 0.00 | 67 | 1020.9 |
| 20260831031004 | 22 | 226 | 8.0 | 8.0 | 0.00 | 0.00 | 0.00 | 67 | 1020.8 |
| 20260831030504 | 22 | 226 | 8.0 | 8.0 | 0.00 | 0.00 | 0.00 | 67 | 1020.7 |
| 20260831030003 | 22 | 224 | 8.0 | 11.3 | 0.00 | 0.00 | 0.00 | 66 | 1020.5 |
| 20260831025503 | 22 | 224 | 8.0 | 11.3 | 0.00 | 0.00 | 0.00 | 66 | 1020.5 |
| 20260831025004 | 23 | 237 | 4.8 | 6.4 | 0.00 | 0.00 | 0.00 | 64 | 1020.7 |
| 20260831023004 | 23 | 237 | 4.8 | 6.4 | 0.00 | 0.00 | 0.00 | 64 | 1020.7 |
| 20260831022504 | 23 | 237 | 4.8 | 6.4 | 0.00 | 0.00 | 0.00 | 64 | 1020.6 |
| 20260831022004 | 23 | 237 | 4.8 | 6.4 | 0.00 | 0.00 | 0.00 | 64 | 1020.7 |
| 20260831020004 | 23 | 257 | 9.7 | 11.3 | 0.00 | 0.00 | 0.00 | 63 | 1020.5 |
| 20260831015504 | 23 | 245 | 11.3 | 11.3 | 0.00 | 0.00 | 0.00 | 62 | 1020.3 |
| 20260831015004 | 23 | 265 | 14.5 | 16.1 | 0.00 | 0.00 | 0.00 | 62 | 1020.5 |
| 20260831014504 | 23 | 228 | 8.0 | 11.3 | 0.00 | 0.00 | 0.00 | 61 | 1020.3 |
| 20260831014004 | 23 | 256 | 11.3 | 11.3 | 0.00 | 0.00 | 0.00 | 60 | 1020.4 |
| 20260831013504 | 23 | 256 | 11.3 | 11.3 | 0.00 | 0.00 | 0.00 | 60 | 1020.3 |
| 20260831011503 | 24 | 199 | 8.0 | 14.5 | 0.00 | 0.00 | 0.00 | 58 | 1020.7 |
| 20260831011003 | 24 | 255 | 8.0 | 17.7 | 0.00 | 0.00 | 0.00 | 58 | 1020.4 |
| 20260831010504 | 24 | 209 | 6.4 | 12.9 | 0.00 | 0.00 | 0.00 | 58 | 1020.5 |
| 20260831010003 | 24 | 216 | 11.3 | 12.9 | 0.00 | 0.00 | 0.00 | 58 | 1020.6 |
| 20260831005503 | 24 | 233 | 11.3 | 17.7 | 0.00 | 0.00 | 0.00 | 58 | 1020.4 |
| 20260831005004 | 24 | 214 | 14.5 | 19.3 | 0.00 | 0.00 | 0.00 | 57 | 1020.6 |
| 20260831004504 | 24 | 258 | 4.8 | 8.0 | 0.00 | 0.00 | 0.00 | 57 | 1020.5 |
| 20260831004004 | 24 | 200 | 8.0 | 9.7 | 0.00 | 0.00 | 0.00 | 57 | 1020.5 |
| 20260831002004 | 25 | 192 | 12.9 | 17.7 | 0.00 | 0.00 | 0.00 | 55 | 1020.5 |
| 20260831001504 | 25 | 210 | 17.7 | 19.3 | 0.00 | 0.00 | 0.00 | 55 | 1020.2 |
| 20260831001003 | 25 | 206 | 8.0 | 11.3 | 0.00 | 0.00 | 0.00 | 55 | 1020.3 |
| 20260831000504 | 25 | 219 | 9.7 | 16.1 | 0.00 | 0.00 | 0.00 | 55 | 1020.3 |
| 20260831000004 | 25 | 197 | 8.0 | 11.3 | 0.00 | 0.00 | 0.00 | 54 | 1020.2 |
| 20260830235504 | 25 | 219 | 14.5 | 14.5 | 0.00 | 0.00 | 0.00 | 54 | 1020.2 |
| 20260830235004 | 25 | 251 | 8.0 | 17.7 | 0.00 | 0.00 | 0.00 | 53 | 1020.4 |
| 20260830234504 | 25 | 193 | 8.0 | 11.3 | 0.00 | 0.00 | 0.00 | 53 | 1020.5 |
| 20260830234004 | 25 | 204 | 9.7 | 20.9 | 0.00 | 0.00 | 0.00 | 52 | 1020.6 |
| 20260830233504 | 25 | 205 | 6.4 | 12.9 | 0.00 | 0.00 | 0.00 | 52 | 1020.8 |
| 20260830233003 | 25 | 202 | 14.5 | 20.9 | 0.00 | 0.00 | 0.00 | 51 | 1020.7 |
| 20260830232503 | 25 | 219 | 9.7 | 16.1 | 0.00 | 0.00 | 0.00 | 52 | 1020.5 |
| 20260830232004 | 25 | 215 | 12.9 | 14.5 | 0.00 | 0.00 | 0.00 | 52 | 1020.4 |
| 20260830231504 | 25 | 223 | 14.5 | 20.9 | 0.00 | 0.00 | 0.00 | 51 | 1020.6 |
| 20260830231003 | 25 | 217 | 11.3 | 16.1 | 0.00 | 0.00 | 0.00 | 51 | 1020.6 |
| 20260830230504 | 26 | 245 | 12.9 | 20.9 | 0.00 | 0.00 | 0.00 | 51 | 1020.6 |
| 20260830230004 | 26 | 197 | 14.5 | 19.3 | 0.00 | 0.00 | 0.00 | 50 | 1020.5 |
| 20260830225503 | 26 | 146 | 11.3 | 20.9 | 0.00 | 0.00 | 0.00 | 50 | 1020.8 |
| 20260830225004 | 26 | 185 | 16.1 | 19.3 | 0.00 | 0.00 | 0.00 | 49 | 1020.6 |
| 20260830224503 | 26 | 258 | 6.4 | 19.3 | 0.00 | 0.00 | 0.00 | 50 | 1020.7 |
| 20260830224003 | 26 | 168 | 11.3 | 16.1 | 0.00 | 0.00 | 0.00 | 50 | 1020.8 |
| 20260830223504 | 26 | 212 | 17.7 | 22.5 | 0.00 | 0.00 | 0.00 | 49 | 1020.8 |
| 20260830223003 | 26 | 223 | 14.5 | 29.0 | 0.00 | 0.00 | 0.00 | 48 | 1021.0 |
| 20260830222504 | 26 | 219 | 14.5 | 24.1 | 0.00 | 0.00 | 0.00 | 49 | 1021.1 |
| 20260830222004 | 26 | 207 | 8.0 | 20.9 | 0.00 | 0.00 | 0.00 | 50 | 1021.1 |
| 20260830221504 | 26 | 224 | 9.7 | 24.1 | 0.00 | 0.00 | 0.00 | 50 | 1021.4 |
| 20260830221004 | 25 | 202 | 9.7 | 19.3 | 0.00 | 0.00 | 0.00 | 51 | 1021.0 |
| 20260830220504 | 25 | 192 | 22.5 | 24.1 | 0.00 | 0.00 | 0.00 | 51 | 1021.4 |
| 20260830220003 | 26 | 153 | 12.9 | 17.7 | 0.00 | 0.00 | 0.00 | 49 | 1021.4 |
| 20260830215503 | 26 | 202 | 9.7 | 24.1 | 0.00 | 0.00 | 0.00 | 51 | 1021.6 |
| 20260830215004 | 27 | 234 | 11.3 | 20.9 | 0.00 | 0.00 | 0.00 | 48 | 1021.7 |
| 20260830214503 | 26 | 194 | 4.8 | 19.3 | 0.00 | 0.00 | 0.00 | 50 | 1021.7 |
| 20260830214003 | 25 | 211 | 12.9 | 30.6 | 0.00 | 0.00 | 0.00 | 52 | 1021.9 |
| 20260830212003 | 27 | 205 | 9.7 | 20.9 | 0.00 | 0.00 | 0.00 | 50 | 1021.9 |
| 20260830211503 | 28 | 195 | 17.7 | 20.9 | 0.00 | 0.00 | 0.00 | 48 | 1022.1 |
| 20260830211004 | 28 | 250 | 16.1 | 22.5 | 0.00 | 0.00 | 0.00 | 47 | 1022.2 |
| 20260830210503 | 27 | 217 | 12.9 | 24.1 | 0.00 | 0.00 | 0.00 | 48 | 1022.2 |
| 20260830210003 | 27 | 204 | 24.1 | 29.0 | 0.00 | 0.00 | 0.00 | 48 | 1022.2 |
| 20260830205504 | 27 | 137 | 11.3 | 22.5 | 0.00 | 0.00 | 0.00 | 49 | 1022.0 |
| 20260830205004 | 27 | 155 | 12.9 | 17.7 | 0.00 | 0.00 | 0.00 | 50 | 1022.2 |
| 20260830204504 | 26 | 239 | 14.5 | 24.1 | 0.00 | 0.00 | 0.00 | 51 | 1022.2 |
| 20260830204004 | 27 | 158 | 14.5 | 25.7 | 0.00 | 0.00 | 0.00 | 49 | 1022.3 |
| 20260830203503 | 27 | 158 | 11.3 | 19.3 | 0.00 | 0.00 | 0.00 | 50 | 1022.3 |
| 20260830203003 | 26 | 177 | 9.7 | 16.1 | 0.00 | 0.00 | 0.00 | 51 | 1022.4 |
| 20260830202504 | 25 | 225 | 14.5 | 30.6 | 0.00 | 0.00 | 0.00 | 52 | 1022.6 |
| 20260830202004 | 26 | 200 | 4.8 | 16.1 | 0.00 | 0.00 | 0.00 | 53 | 1022.3 |
| 20260830201504 | 26 | 247 | 16.1 | 38.6 | 0.00 | 0.00 | 0.00 | 52 | 1022.7 |
| 20260830201004 | 25 | 178 | 8.0 | 17.7 | 0.00 | 0.00 | 0.00 | 53 | 1022.6 |
| 20260830200503 | 25 | 126 | 9.7 | 20.9 | 0.00 | 0.00 | 0.00 | 53 | 1022.5 |
| 20260830200003 | 25 | 109 | 14.5 | 22.5 | 0.00 | 0.00 | 0.00 | 53 | 1022.6 |
| 20260830195504 | 25 | 209 | 11.3 | 12.9 | 0.00 | 0.00 | 0.00 | 53 | 1022.8 |
| 20260830195003 | 25 | 127 | 8.0 | 11.3 | 0.00 | 0.00 | 0.00 | 53 | 1022.8 |
| 20260830194503 | 25 | 150 | 8.0 | 19.3 | 0.00 | 0.00 | 0.00 | 54 | 1022.8 |
| 20260830194004 | 25 | 142 | 4.8 | 8.0 | 0.00 | 0.00 | 0.00 | 53 | 1022.9 |
| 20260830193504 | 25 | 142 | 4.8 | 11.3 | 0.00 | 0.00 | 0.00 | 53 | 1022.8 |
| 20260830193004 | 25 | 143 | 17.7 | 19.3 | 0.00 | 0.00 | 0.00 | 52 | 1022.9 |
| 20260830192504 | 26 | 144 | 14.5 | 22.5 | 0.00 | 0.00 | 0.00 | 51 | 1022.9 |
| 20260830190503 | 26 | 188 | 19.3 | 24.1 | 0.00 | 0.00 | 0.00 | 51 | 1023.0 |
| 20260830190004 | 25 | 127 | 8.0 | 12.9 | 0.00 | 0.00 | 0.00 | 52 | 1023.0 |
| 20260830185503 | 26 | 183 | 11.3 | 17.7 | 0.00 | 0.00 | 0.00 | 51 | 1022.9 |
| 20260830185004 | 26 | 183 | 11.3 | 17.7 | 0.00 | 0.00 | 0.00 | 51 | 1022.9 |
| 20260830184503 | 25 | 181 | 20.9 | 33.8 | 0.00 | 0.00 | 0.00 | 51 | 1023.0 |
| 20260830184004 | 26 | 173 | 8.0 | 25.7 | 0.00 | 0.00 | 0.00 | 51 | 1023.0 |
| 20260830183504 | 26 | 191 | 14.5 | 16.1 | 0.00 | 0.00 | 0.00 | 51 | 1023.2 |
| 20260830183004 | 26 | 204 | 12.9 | 16.1 | 0.00 | 0.00 | 0.00 | 50 | 1022.9 |
| 20260830182504 | 26 | 180 | 12.9 | 20.9 | 0.00 | 0.00 | 0.00 | 50 | 1023.1 |
| 20260830182003 | 25 | 210 | 20.9 | 32.2 | 0.00 | 0.00 | 0.00 | 52 | 1023.2 |
| 20260830181503 | 25 | 207 | 19.3 | 29.0 | 0.00 | 0.00 | 0.00 | 52 | 1023.2 |
| 20260830181004 | 25 | 229 | 22.5 | 37.0 | 0.00 | 0.00 | 0.00 | 50 | 1023.4 |
| 20260830180503 | 25 | 230 | 14.5 | 32.2 | 0.00 | 0.00 | 0.00 | 49 | 1023.1 |
| 20260830180003 | 26 | 200 | 14.5 | 17.7 | 0.00 | 0.00 | 0.00 | 49 | 1023.2 |
| 20260830175503 | 25 | 164 | 14.5 | 20.9 | 0.00 | 0.00 | 0.00 | 50 | 1023.5 |
| 20260830175003 | 25 | 198 | 9.7 | 14.5 | 0.00 | 0.00 | 0.00 | 49 | 1023.4 |
| 20260830174503 | 25 | 187 | 22.5 | 22.5 | 0.00 | 0.00 | 0.00 | 50 | 1023.2 |
| 20260830170003 | 22 | 164 | 9.7 | 20.9 | 0.00 | 0.00 | 0.00 | 58 | 1023.0 |
| 20260830165503 | 22 | 221 | 12.9 | 24.1 | 0.00 | 0.00 | 0.00 | 60 | 1023.1 |
| 20260830165004 | 22 | 147 | 22.5 | 38.6 | 0.00 | 0.00 | 0.00 | 57 | 1023.5 |
| 20260830164503 | 23 | 152 | 11.3 | 24.1 | 0.00 | 0.00 | 0.00 | 55 | 1023.4 |
| 20260830164003 | 23 | 150 | 24.1 | 25.7 | 0.00 | 0.00 | 0.00 | 54 | 1023.4 |
| 20260830163503 | 23 | 162 | 9.7 | 30.6 | 0.00 | 0.00 | 0.00 | 55 | 1023.4 |
| 20260830163003 | 23 | 145 | 6.4 | 24.1 | 0.00 | 0.00 | 0.00 | 57 | 1023.2 |
| 20260830162503 | 23 | 131 | 14.5 | 30.6 | 0.00 | 0.00 | 0.00 | 55 | 1023.1 |
| 20260830162004 | 23 | 131 | 11.3 | 16.1 | 0.00 | 0.00 | 0.00 | 55 | 1023.1 |
| 20260830161503 | 23 | 199 | 6.4 | 22.5 | 0.00 | 0.00 | 0.00 | 56 | 1023.4 |
| 20260830161004 | 22 | 146 | 17.7 | 30.6 | 0.00 | 0.00 | 0.00 | 57 | 1023.2 |
| 20260830160504 | 22 | 166 | 11.3 | 27.4 | 0.00 | 0.00 | 0.00 | 58 | 1022.9 |
| 20260830154503 | 23 | 182 | 25.7 | 27.4 | 0.00 | 0.00 | 0.00 | 56 | 1022.9 |
| 20260830154004 | 22 | 203 | 27.4 | 38.6 | 0.00 | 0.00 | 0.00 | 57 | 1022.9 |
| 20260830153503 | 23 | 158 | 16.1 | 24.1 | 0.00 | 0.00 | 0.00 | 56 | 1022.9 |
| 20260830151503 | 22 | 191 | 9.7 | 25.7 | 0.00 | 0.00 | 0.00 | 58 | 1022.9 |
| 20260830151003 | 22 | 156 | 17.7 | 20.9 | 0.00 | 0.00 | 0.00 | 58 | 1022.8 |
| 20260830150503 | 22 | 159 | 14.5 | 24.1 | 0.00 | 0.00 | 0.00 | 57 | 1022.8 |
| 20260830150003 | 22 | 186 | 16.1 | 30.6 | 0.00 | 0.00 | 0.00 | 56 | 1022.9 |
| 20260830145503 | 23 | 166 | 11.3 | 17.7 | 0.00 | 0.00 | 0.00 | 57 | 1022.8 |
| 20260830145003 | 22 | 182 | 9.7 | 20.9 | 0.00 | 0.00 | 0.00 | 59 | 1022.8 |
| 20260830144503 | 22 | 222 | 12.9 | 32.2 | 0.00 | 0.00 | 0.00 | 59 | 1022.9 |
| 20260830144003 | 22 | 189 | 24.1 | 27.4 | 0.00 | 0.00 | 0.00 | 60 | 1022.8 |
| 20260830143503 | 22 | 179 | 3.2 | 27.4 | 0.00 | 0.00 | 0.00 | 60 | 1022.8 |
| 20260830143003 | 22 | 143 | 9.7 | 29.0 | 0.00 | 0.00 | 0.00 | 61 | 1022.8 |
| 20260830142503 | 22 | 169 | 16.1 | 25.7 | 0.00 | 0.00 | 0.00 | 61 | 1022.6 |
| 20260830142003 | 22 | 182 | 11.3 | 35.4 | 0.00 | 0.00 | 0.00 | 62 | 1022.7 |
| 20260830141503 | 21 | 213 | 17.7 | 32.2 | 0.00 | 0.00 | 0.00 | 63 | 1022.7 |
| 20260830141003 | 21 | 221 | 22.5 | 25.7 | 0.00 | 0.00 | 0.00 | 63 | 1022.7 |
| 20260830135503 | 21 | 178 | 19.3 | 29.0 | 0.00 | 0.00 | 0.00 | 63 | 1022.6 |
| 20260830135003 | 21 | 197 | 11.3 | 29.0 | 0.00 | 0.00 | 0.00 | 63 | 1022.3 |
| 20260830134503 | 21 | 178 | 19.3 | 22.5 | 0.00 | 0.00 | 0.00 | 63 | 1022.4 |
| 20260830132503 | 21 | 164 | 12.9 | 19.3 | 0.00 | 0.00 | 0.00 | 65 | 1022.2 |
| 20260830132004 | 21 | 164 | 12.9 | 19.3 | 0.00 | 0.00 | 0.00 | 65 | 1022.3 |
| 20260830131504 | 21 | 164 | 12.9 | 19.3 | 0.00 | 0.00 | 0.00 | 65 | 1022.2 |
| 20260830131003 | 21 | 178 | 24.1 | 24.1 | 0.00 | 0.00 | 0.00 | 65 | 1022.0 |
| 20260830130503 | 21 | 178 | 24.1 | 24.1 | 0.00 | 0.00 | 0.00 | 65 | 1022.2 |
| 20260830130004 | 21 | 178 | 24.1 | 24.1 | 0.00 | 0.00 | 0.00 | 65 | 1022.1 |
| 20260830125503 | 21 | 178 | 24.1 | 24.1 | 0.00 | 0.00 | 0.00 | 65 | 1021.8 |
| 20260830125003 | 21 | 178 | 24.1 | 24.1 | 0.00 | 0.00 | 0.00 | 65 | 1021.9 |
| 20260830124504 | 21 | 178 | 24.1 | 24.1 | 0.00 | 0.00 | 0.00 | 65 | 1021.9 |
| 20260830124003 | 21 | 201 | 14.5 | 30.6 | 0.00 | 0.00 | 0.00 | 65 | 1021.8 |
| 20260830123503 | 21 | 196 | 17.7 | 24.1 | 0.00 | 0.00 | 0.00 | 66 | 1021.9 |
| 20260830123003 | 21 | 183 | 30.6 | 32.2 | 0.00 | 0.00 | 0.00 | 66 | 1021.7 |
| 20260830122504 | 21 | 183 | 30.6 | 32.2 | 0.00 | 0.00 | 0.00 | 66 | 1021.7 |
| 20260830122004 | 21 | 207 | 17.7 | 22.5 | 0.00 | 0.00 | 0.00 | 67 | 1021.9 |
| 20260830121504 | 21 | 207 | 17.7 | 22.5 | 0.00 | 0.00 | 0.00 | 67 | 1022.1 |
| 20260830115504 | 21 | 196 | 14.5 | 25.7 | 0.00 | 0.00 | 0.00 | 67 | 1022.0 |
| 20260830115004 | 21 | 186 | 19.3 | 29.0 | 0.00 | 0.00 | 0.00 | 67 | 1021.9 |
| 20260830114504 | 21 | 186 | 19.3 | 29.0 | 0.00 | 0.00 | 0.00 | 67 | 1021.7 |
| 20260830114004 | 21 | 210 | 20.9 | 27.4 | 0.00 | 0.00 | 0.00 | 67 | 1022.1 |
| 20260830113503 | 20 | 188 | 14.5 | 16.1 | 0.00 | 0.00 | 0.00 | 69 | 1021.9 |
| 20260830113004 | 21 | 198 | 24.1 | 27.4 | 0.00 | 0.00 | 0.00 | 67 | 1021.8 |
| 20260830112504 | 21 | 198 | 24.1 | 27.4 | 0.00 | 0.00 | 0.00 | 67 | 1022.0 |
| 20260830112004 | 20 | 190 | 16.1 | 22.5 | 0.00 | 0.00 | 0.00 | 68 | 1021.8 |
| 20260830111504 | 20 | 186 | 16.1 | 27.4 | 0.00 | 0.00 | 0.00 | 68 | 1022.0 |
| 20260830111004 | 21 | 162 | 9.7 | 25.7 | 0.00 | 0.00 | 0.00 | 68 | 1021.7 |
| 20260830110504 | 21 | 162 | 9.7 | 25.7 | 0.00 | 0.00 | 0.00 | 68 | 1021.8 |
| 20260830110005 | 21 | 162 | 9.7 | 25.7 | 0.00 | 0.00 | 0.00 | 68 | 1021.7 |
| 20260830105503 | 21 | 181 | 17.7 | 29.0 | 0.00 | 0.00 | 0.00 | 68 | 1022.0 |
| 20260830105003 | 20 | 196 | 11.3 | 17.7 | 0.00 | 0.00 | 0.00 | 69 | 1021.9 |
| 20260830104504 | 20 | 212 | 17.7 | 27.4 | 0.00 | 0.00 | 0.00 | 69 | 1022.0 |
| 20260830104003 | 21 | 180 | 17.7 | 20.9 | 0.00 | 0.00 | 0.00 | 68 | 1021.9 |
| 20260830103503 | 21 | 180 | 17.7 | 20.9 | 0.00 | 0.00 | 0.00 | 68 | 1021.8 |
| 20260830103004 | 21 | 195 | 19.3 | 27.4 | 0.00 | 0.00 | 0.00 | 68 | 1021.9 |
| 20260830102504 | 21 | 207 | 20.9 | 27.4 | 0.00 | 0.00 | 0.00 | 68 | 1021.7 |
| 20260830102004 | 21 | 213 | 19.3 | 25.7 | 0.00 | 0.00 | 0.00 | 68 | 1021.7 |
| 20260830101504 | 21 | 213 | 19.3 | 25.7 | 0.00 | 0.00 | 0.00 | 68 | 1021.8 |
| 20260830100004 | 21 | 180 | 17.7 | 22.5 | 0.00 | 0.00 | 0.00 | 68 | 1021.6 |
| 20260830095503 | 21 | 175 | 22.5 | 25.7 | 0.00 | 0.00 | 0.00 | 69 | 1021.7 |
| 20260830095004 | 20 | 201 | 12.9 | 17.7 | 0.00 | 0.00 | 0.00 | 69 | 1021.4 |
| 20260830094503 | 20 | 194 | 8.0 | 9.7 | 0.00 | 0.00 | 0.00 | 69 | 1021.5 |
| 20260830094003 | 20 | 194 | 8.0 | 9.7 | 0.00 | 0.00 | 0.00 | 69 | 1021.6 |
| 20260830093503 | 20 | 150 | 11.3 | 11.3 | 0.00 | 0.00 | 0.00 | 71 | 1021.6 |
| 20260830093004 | 20 | 150 | 11.3 | 11.3 | 0.00 | 0.00 | 0.00 | 71 | 1021.7 |
| 20260830092504 | 19 | 136 | 9.7 | 11.3 | 0.00 | 0.00 | 0.00 | 72 | 1021.7 |
| 20260830092004 | 19 | 121 | 3.2 | 8.0 | 0.00 | 0.00 | 0.00 | 73 | 1021.8 |
| 20260830090004 | 20 | 126 | 8.0 | 9.7 | 0.00 | 0.00 | 0.00 | 71 | 1021.7 |
| 20260830085503 | 20 | 126 | 8.0 | 9.7 | 0.00 | 0.00 | 0.00 | 71 | 1021.7 |
| 20260830083504 | 20 | 152 | 8.0 | 12.9 | 0.00 | 0.00 | 0.00 | 70 | 1021.7 |
| 20260830083004 | 20 | 112 | 9.7 | 14.5 | 0.00 | 0.00 | 0.00 | 70 | 1022.0 |
| 20260830082504 | 20 | 119 | 4.8 | 11.3 | 0.00 | 0.00 | 0.00 | 68 | 1021.8 |
| 20260830080503 | 22 | 143 | 4.8 | 8.0 | 0.00 | 0.00 | 0.00 | 56 | 1021.6 |
| 20260830080004 | 22 | 177 | 12.9 | 17.7 | 0.00 | 0.00 | 0.00 | 56 | 1021.5 |
| 20260830075504 | 22 | 177 | 12.9 | 17.7 | 0.00 | 0.00 | 0.00 | 56 | 1021.7 |